Simultaneous Nadir Overpasses (SNOs) Predictions

Prediction of SNOs between AQUA and NOAA-19 Satellite Orbit:

Table of predicted SNOs for the next 14.0 days since TLE Epoch: 6/16/2022
Index Date (AQUA) Time (AQUA) Lat,Lon (AQUA) SZA (AQUA ) Date (NOAA-19) Time (NOAA-19) Lat,Lon (NOAA-19) SZA (NOAA-19 ) Distance(km) Time Diff (sec)
1 06/17/2022 02:02:27 77.60, 133.07 54.73 06/17/2022 02:02:39 77.60, 132.97 54.73 2.49 12
2 06/19/2022 07:35:45 -77.60,-130.25 125.31 06/19/2022 07:35:30 -77.59,-130.21 125.32 2.14 15
3 06/19/2022 08:25:19 77.92, 35.97 55.10 06/19/2022 08:26:25 77.96, 39.06 54.91 71.87 66
4 06/21/2022 13:09:03 77.56, -33.41 54.64 06/21/2022 13:08:30 77.59, -33.38 54.67 2.61 33
5 06/21/2022 13:58:30 -77.63, 133.95 125.28 06/21/2022 13:59:25 -77.60, 133.97 125.33 3.36 55
6 06/23/2022 18:42:20 -77.56, 63.32 125.35 06/23/2022 18:41:22 -77.54, 63.24 125.34 2.79 58
7 06/23/2022 19:31:48 77.61,-129.29 54.73 06/23/2022 19:32:25 77.59,-129.26 54.70 2.74 37
8 06/26/2022 00:15:37 77.51, 160.19 54.66 06/26/2022 00:14:25 77.39, 159.33 54.63 24.63 72
9 06/26/2022 01:05:03 -77.58, -32.44 125.26 06/26/2022 01:05:15 -77.58, -32.43 125.26 0.88 12
10 06/28/2022 06:38:20 77.55, 64.35 54.81 06/28/2022 06:38:14 77.58, 64.39 54.84 3.22 6



Historial Predications of SNOs between AQUA and NOAA-19
